Погода в Обояни

Погода в Обояни : погода сейчас, прогноз погоды и архив. Всё, что Вы хотите узнать о погоде в Обояни!

Хотите узнать прогноз погоды в Обояни? Тогда Вам сюда: Погода в Обояни

Поиск расширенной информации на нашем сайте:

Другие новости

Новости СМИ2

Главная страница сайта

Новости сайта

03.07.2017

Напоминаем, что на нашем специализированном сайте Метеоцентр.Азия вы можете получить высокодетализированные автоматические прогнозы погоды по пунктам России, СНГ и мира в авиационном формате (включающие направление и скорость ветра, видимость, явления погоды, количество и форму облачности, нижнюю и верхнюю границу облачности).

Рекомендуем: Самая подробная информация Ремонт стига на сайте.

Погода в Обояни - сегодня

Время (UTC), дата Ветер
(°,м/с) 
Видим.   Явления Облачность Т
(°С)
Тd
(°С)
f(%) Тe
(°С)
Pmin
(гПа)
dP
(гПа)
Po
(мм)
O2
(г/м3)
Тmin Tmax R s Состояние
почвы
09 20.06.18 270 (З) 10 км    6/6 600 м 
[Cu med, cong]
+27.8 +11.9 37 +32  1013.8  0.1  744  270           
12 20.06.18 280 (З) 10 км    8/8 600 м 
[Cu med, cong]
+28.8 +10.8 33 +31  1013.3  -0.4  744  269           
15 20.06.18 280 (З) 10 км    ясно 
+27.5 +9.3 32 +28  1013.1  -0.3  744  271           
21 20.06.18 тихо ()   10 км    ясно 
+15.9 +10 68 +17  1016  1.4  745  282           
00 21.06.18 250 (З) 10 км    ясно 
+13.1 +9.6 79 +15  1016.7  0.4  745  285           
03 21.06.18 250 (З) 10 км    ясно 
+13.1 +10 81 +15  1017.6  0.9  746  285  +11.7         
09 21.06.18 260 (З) 10 км    ясно 
+26.4 +8.3 32 +26  1016  -0.8  746  273           
12 21.06.18 250 (З) 10 км    ясно 
+28.6 +7.5 26 +29  1014.2  -1.4  744  270           
15 21.06.18 250 (З) 10 км    ясно 
+28.6 +8.4 28 +29  1013.3  -0.9  744  270           
21 21.06.18 тихо ()   10 км    ясно 
+16 +12.4 79 +21  1014  744  281           
00 22.06.18 тихо ()   10 км    ясно 
+13 +11.1 88 +16  1014.1  -0.2  743  284           
03 22.06.18 тихо ()   10 км    ясно 
+14.6 +12 84 +19  1013.5  -0.5  743  282  +12.6         
09 22.06.18 210 (ЮЗ) 10 км    ясно 
+30.2 +10.2 29 +32  1011.4  -0.4  742  268           
12 22.06.18 170 (Ю) 10 км    ясно 
+31.1 +10.1 27 +33  1010  -1.4  741  266           
15 22.06.18 190 (Ю) 10 км    ясно 
+31.5 +10 27 +33  1008.7  -1.2  740  266           
21 22.06.18 050 (СВ) 10 км    ясно 
+19.5 +13.8 70 +28  1009.5  -0.2  740  276           
00 23.06.18 080 (В) 10 км    ясно 
+19 +12.6 66 +26  1009.5  740  276           
03 23.06.18 090 (В) 10 км    ясно 
+20 +9.8 52 +21  1008.8  -0.7  740  276  +16.9         
09 23.06.18 170 (Ю) 20000 м    ясно 
+32.9 +9.7 24 +34  1006.8  -0.5  739  264           
12 23.06.18 140 (ЮВ) 20000 м    8/0 верхняя 
[Ci]
+32.7 +8.8 23 +33  1005.4  -1.4  738  264           
15 23.06.18 130 (ЮВ) 20000 м    10/10 600 м кучево-дожд. 
[Cb calv]
+29.9 +10 29 +31  1004.5  -1.1  749  270           
21 23.06.18 тихо ()   н/о    н/о 
+18 +14 77 +25  1006.4  -0.2  738  276           
09 24.06.18 280 (З) 10 км  {ливн. осадки}  10/10 600 м кучево-дожд. 
[Cb calv]
+13.2 +11.9 92 +18  1011.9  2.5  742  283           
15 24.06.18 290 (З) 10 км    8/8 600 м кучево-дожд. 
[Cb calv]
+17 +9.1 60 +18  1014.3  1.5  744  281      19     
21 24.06.18 тихо ()   10 км    8/4 600 м средняя 
[Sc|Ac trans]
+11.2 +9 86 +11  1017.3  1.2  746  287           
Время (UTC), дата Ветер
(°,м/с) 
Видим.   Явления Облачность Т
(°С)
Тd
(°С)
f(%) Тe
(°С)
Pmin
(гПа)
dP
(гПа)
Po
(мм)
O2
(г/м3)
Тmin Tmax R s Состояние
почвы

Для получения пояснительной информации подведите курсор к названию столбца.

ПОГОДА в Обояни - архив

Всё, что Вы хотите узнать о погоде в Обояни - удобно и подробно!

Выберите нужную дату (начиная с 1 января 2015* года) и нажмите кнопку "Найти".
Будут отображены архивные сводки погоды по пункту Обоянь, начиная с указанной даты.


Отображать данные в формате CSV (для использования в таблицах Excel)


Внимание! Наш архив погоды предназначен исключительно для личного некоммерческого использования в познавательных целях. Если Вам необходимы официальные справки о состоянии погоды (для производственных, юридических, коммерческих и т.п. целей), обращайтесь в органы Росгидромета.

*Примечание: данная дата относится к архиву по метеостанциям СССР (Россия, СНГ, Балтия).
Архив по метеостанциям Зарубежной Европы и Азии (кроме Китая) хранится 10 дней, по другим регионам земного шара (Китай, Африка, Америка, Австралия, Океания) - 1 день.

Обоянь - район местоположения метеостанции


Название, широта, долгота, высота метеостанции:
Обоянь 51.2°ш. 36.3°д. 192 м над ур. моря [Российская Федерация]

Дополнительная информация

В oтличие oт бoльшинства пoгoдных сайтoв мы публикуем пoдрoбную метеoинфoрмацию в детальнoм прoфессиoнальнoм фoрмате.

Характеристики температуры и влажнoсти вoздуха измеряются на высoте 2 м в тени вдали oт зданий и деревьев.
Скoрoсть ветра измеряется на высoте 10 м (на урoвне рoста челoвека скoрoсть ветра ниже в 1.5-2 раза). Если метеoстанция нахoдится в гoрoде или в лесу, тo скoрoсть ветра занижена на 2-4 м/с пo сравнению с oткрытым местoм. Скoрoсть ветра над акватoриями крупных рек и oзёр, а также на вершинах хoлмoв на 2-5 м/с выше, чем в oбычных услoвиях.
Атмoсфернoе давление в разных тoчках местнoсти мoжет значительнo oтличаться oт давления на метеoстанции, в зависимoсти oт услoвий рельефа (при пoдъёме на 10 м давление пoнижается примернo на 1 мм рт.ст.).